Погода в Юрасовке

Россия / Воронежская область     50°29′24″N   39°11′02″E
темп.,
°C
ветер,
м/с
пор.,
м/с
влажн.,
%
обл.,
%
осадки,
мм/ч
давл.,
гПа
погр.,
м
11 апреля, вс
вс1100:00+5с41160100 0.0 1025246
03:00+5с4116595 0.0 1026283
06:00+4ссв61464100 0.0 1026398
09:00+7ссв71257100 0.0 1027664
12:00+10ссв81247100 0.0 1026825
15:00+12ссв8114499 0.0 10251060
18:00+11ссв61252100 0.0 1025773
21:00+9св6108594 0.0 1025570
12 апреля, пн
пн1200:00+8св61089100 0.0 1025339
03:00+7св51195100 0.0 1025256
06:00+6св51195100 0.0 1024243
09:00+12всв61075100 0.0 1023339
12:00+20в794050 0.0 10221001
15:00+22вюв793381 0.0 10211406
18:00+19вюв51046100 0.0 1021275
21:00+15юв5136075 0.0 1023357
13 апреля, вт
вт1300:00+13юв4106888 0.0 1023239
03:00+12в3972100 0.0 1023209
06:00+10в3980100 0.0 1023171
09:00+14вюв51061100 0.0 1023430
12:00+18юв584394 0.0 1022838
15:00+20юв68346 0.0 10201813
18:00+18юв61146100 0.0 1020491
21:00+15юв3958100 0.0 1021242
14 апреля, ср
ср1400:00+13юв33707 0.0 102057
03:00+11юв358399 0.0 1020113
06:00+10юв3488100 0.0 102092
09:00+14ююв466973 0.0 1020511
12:00+18ююв575490 0.0 10191511
15:00+19ю474372 0.1 10181920
18:00+18ююв2448100 0.0 101893
21:00+14ююв2255100 0.0 101819
15 апреля, чт
чт1500:00+12вюв1154100 0.0 101710
03:00+12в2251100 0.0 101710
06:00+12вюв1253100 0.0 101613
09:00+14всв2247100 0.0 1016246
12:00+16ссв4443100 0.0 1015536
15:00+20вюв3633100 0.0 10131816
18:00+18ююз4746100 0.0 1011272
21:00+12зюз6108199 0.3 1012331